HST 1 20580U 90037B 25048.89327600 .00011917 00000-0 48221-3 0 9997 2 20580 28.4678 132.3875 0002412 191.1406 168.9135 15.23100504714727 ISS (ZARYA) 1 25544U 98067A 25049.36865051 .00017018 00000-0 30289-3 0 9996 2 25544 51.6389 175.5124 0004060 333.0365 122.1476 15.50242656496730 CXO 1 25867U 99040B 25050.43880923 .00000910 00000-0 00000-0 0 9999 2 25867 46.8236 135.8362 8590486 307.1490 0.4104 0.37807170 15504